CZ-4 DEB, 26191

Orbit data source: Space-Track

CZ-4 DEB, 26191 is space debris in SSO originally from a launch on Thu, 14 Oct 1999 UTC launched from the Taiyaun Space Center, China (TSC). Debris objects in space refer to the collection of defunct objects orbiting the Earth. Examples of debris include non-operational satellites, rocket bodies, and fragments generated from explosions, collisions, or faulty payload assembly.

Loading next visibility...
Identifier
26191, 1999-057CD
Orbit
SSO
Country
Flag of CNCN / PRC
Related business
Manufacturer
Unknown
Mission
Spacecraft
Bus & Motor
Unknown
Mass
Unknown
Launch date (UTC)
1999-10-14 (26 years ago)
Launch vehicle
Unknown
Launch site
Taiyaun Space Center, China (TSC)
Object type
Payload
Rocket body
Debris
Shape & HBR
Unknown shape, 0.1 m
Radar Cross Section
Small (<0.1 m²)

Expand to show TLE details & history
Last TLE update: 11 hours ago

TLE from 11 hours ago
0 CZ-4 DEB
1 26191U 99057CD  25351.16763679  .00001462  00000-0  38397-3 0  9996
2 26191  98.5683  48.6434 0087872 218.7066 206.0986 14.48470365351878
Epoch: 2025-12-17T04:01Z
TLE epoch observation values (Epoch: 2025-12-17T04:01:23.818Z)
Latitude
63.15694°
Longitude
-114.9732°
Altitude
797.695 km
Speed
7.431 km/s
True Right ascension
02h 05m 40s
True Declination
63° 01' 08"
Sunlit
Object was in full shadow at epoch
Visualization orbit readout
Latitude
Unknown
Longitude
Unknown
Altitude
Unknown
Speed
Unknown
Apparent Right ascension
Unknown
Apparent Declination
Unknown
Sunlit
N/A
Visualization observer readout
Local Sidereal Time
13:21:17
Azimuth
Unknown
Elevation
Unknown
Doppler factor
Unknown
Orbital elements
Apogee altitude
790.203 km
Perigee altitude
665.321 km
Semi-major axis
7,105.899 km
Eccentricity
0.00879
Inclination
98.5683°
RAAN
48.6434°
Arg. of periapsis
218.7066°
True anomaly
205.65996°
Mean anomaly
206.0986°
Eccentric anomaly
205.87885°
Mean motion
3.62339 °/min
Orbital period
99.35 mins
BSTAR
0.00038397
Loading maneuver chart data...
Computing Atmospheric mass density...
Loading historical data...
Loading historical data...
Loading historical data...
Loading historical data...
Loading historical data...
Loading historical data...
Loading historical data...

Documentation

Showing up to 5 results
|